Weather History for Cartersville, GA

Change the Weather History Date:

Sunday, April 6, 2014

  Actual Average Record
Temperature  
Mean Temperature 54 °F 57 °F  
Max Temperature 61 °F 70 °F 80 °F (2006)
Min Temperature 46 °F 43 °F 30 °F (2002)
Degree Days  
Heating Degree Days 11 9  
Month to date heating degree days 29 56  
Since 1 July heating degree days 3293 3084  
Cooling Degree Days 0 0  
Month to date cooling degree days 3 0  
Year to date cooling degree days 3 4  
Growing Degree Days 4 (Base 50)    
Moisture  
Dew Point 44 °F    
Average Humidity 68    
Maximum Humidity 89    
Minimum Humidity 46    
Precipitation  
Precipitation 0.51 in 0.11 in 1.72 in (1964)
Month to date precipitation 0.52 0.75  
Year to date precipitation 10.95 14.97  
Sea Level Pressure  
Sea Level Pressure 29.99 in    
Wind  
Wind Speed 5 mph (East)    
Max Wind Speed 15 mph    
Max Gust Speed 26 mph    
Visibility 10 miles    
Events Rain    
T = Trace of Precipitation, MM = Missing Value Source: NWS Daily Summary

Daily Weather History Graph

Daily Weather History Graph

Search for Another Location

Airport:

Trip Planner

Search our weather history database for the weather conditions in past years. The results will help you decide how hot, cold, wet, or windy it might be!

Date:

Astronomy

Apr. 06, 2014 Rise Set
Actual Time 7:19 AM EDT 8:04 PM EDT
Civil Twilight 6:54 AM EDT 8:29 PM EDT
Nautical Twilight 6:24 AM EDT 8:59 PM EDT
Astronomical Twilight 5:54 AM EDT 9:30 PM EDT
Moon 12:28 PM EDT (4/6) 1:50 AM EDT (4/6)
Length of Visible Light 13h 34m
Length of Day
12h 44m
Waxing Crescent, 43% of the Moon is Illuminated
Apr 6
Waxing Crescent
Apr 7
First Quarter
Apr 15
Full
Apr 22
Last Quarter
Apr 29
New

Hourly Weather History & Observations

Time (EDT) Temp. Dew Point Humidity Pressure Visibility Wind Dir Wind Speed Gust Speed Precip Events Conditions
12:53 AM 46.9 °F 39.0 °F 74% 30.04 in 10.0 mi Calm Calm - N/A   Clear
1:53 AM 48.0 °F 39.0 °F 71% 30.01 in 10.0 mi Calm Calm - N/A   Clear
2:53 AM 48.0 °F 39.0 °F 71% 30.02 in 10.0 mi Calm Calm - N/A   Mostly Cloudy
3:53 AM 48.0 °F 39.9 °F 74% 30.01 in 10.0 mi Calm Calm - N/A   Overcast
4:53 AM 46.9 °F 41.0 °F 80% 30.01 in 10.0 mi Calm Calm - N/A   Overcast
5:53 AM 48.0 °F 41.0 °F 77% 30.00 in 10.0 mi NNE 3.5 mph - N/A   Mostly Cloudy
6:53 AM 48.0 °F 42.1 °F 80% 30.01 in 10.0 mi Calm Calm - N/A   Mostly Cloudy
7:53 AM 48.0 °F 41.0 °F 77% 30.04 in 10.0 mi Calm Calm - N/A   Overcast
8:53 AM 48.9 °F 43.0 °F 80% 30.06 in 10.0 mi Calm Calm - N/A   Overcast
9:53 AM 51.1 °F 44.1 °F 77% 30.08 in 10.0 mi Calm Calm - 0.00 in   Overcast
10:53 AM 52.0 °F 46.0 °F 80% 30.06 in 10.0 mi NNE 8.1 mph - N/A   Partly Cloudy
11:53 AM 57.0 °F 39.9 °F 53% 30.04 in 10.0 mi ESE 10.4 mph 24.2 mph N/A   Clear
12:53 PM 59.0 °F 39.0 °F 48% 30.01 in 10.0 mi SE 10.4 mph 19.6 mph N/A   Clear
1:53 PM 61.0 °F 39.0 °F 44% 30.01 in 10.0 mi East 11.5 mph - N/A   Mostly Cloudy
2:53 PM 61.0 °F 39.9 °F 46% 30.01 in 10.0 mi East 8.1 mph - N/A   Partly Cloudy
3:53 PM 60.1 °F 39.9 °F 47% 29.99 in 10.0 mi SE 5.8 mph - N/A   Scattered Clouds
4:53 PM 60.1 °F 39.9 °F 47% 29.96 in 10.0 mi Variable 5.8 mph - N/A   Mostly Cloudy
5:53 PM 55.0 °F 48.0 °F 77% 29.94 in 10.0 mi ESE 3.5 mph - 0.03 in Rain Light Rain
6:22 PM 54.0 °F 48.9 °F 83% 29.98 in 10.0 mi Calm Calm - 0.01 in Rain Light Rain
6:53 PM 54.0 °F 48.9 °F 83% 29.97 in 8.0 mi ESE 3.5 mph - 0.02 in Rain Light Rain
7:53 PM 53.1 °F 50.0 °F 89% 29.96 in 9.0 mi East 3.5 mph - 0.05 in Rain Light Rain
8:53 PM 52.0 °F 48.0 °F 86% 29.94 in 10.0 mi Variable 3.5 mph - 0.01 in   Overcast
9:00 PM 52.0 °F 48.0 °F 86% 29.95 in 10.0 mi East 8.1 mph - N/A   Overcast
9:53 PM 52.0 °F 48.0 °F 86% 29.93 in 10.0 mi ESE 9.2 mph 18.4 mph 0.01 in   Overcast
10:00 PM 52.0 °F 48.0 °F 86% 29.95 in 10.0 mi ESE 8.1 mph - N/A   Overcast
10:53 PM 52.0 °F 48.0 °F 86% 29.91 in 9.0 mi East 9.2 mph - 0.00 in Rain Light Rain
11:53 PM 51.1 °F 48.0 °F 89% 29.91 in 4.0 mi East 5.8 mph - 0.08 in Rain Rain